Location: Peebles
(55.6412°N, 3.1714°W)
Time: 14:59:19
(UTC+01:00)

LEMUR 2 NALLYWACKER - Pass Details

Date: 10 July 2022
Orbit: 502 x 518 km, 97.4° (Epoch: 16 August)

Event Time Altitude Azimuth Distance (km) Brightness Sun altitude
Rises 22:51:20 0° 196° (SSW) 2,641 ? -6.2°
Reaches altitude 10° 22:53:42 10° 210° (SSW) 1,757 ? -6.4°
Maximum altitude 22:56:53 25° 267° (W) 1,081 ? -6.6°
Drops below altitude 10° 23:00:05 10° 324° (NW) 1,765 ? -6.9°
Sets 23:02:28 0° 338° (NNW) 2,655 ? -7.0°
